Location: �perlecques
(50.8057°N, 2.1521°E)
Time: 06:16:20
(UTC+00:00)

Vanguard 1 Rocket - Pass Details

Date: 09 August 2021
Orbit: 650 x 4226 km, 34.3° (Epoch: 17 September)

Event Time Altitude Azimuth Distance (km) Brightness Sun altitude
Rises 09:15:52 0° 245° (WSW) 8,444 12.1 42.4°
Reaches altitude 10° 09:22:27 10° 240° (WSW) 7,251 11.9 43.3°
Maximum altitude 09:43:12 44° 180° (S) 3,784 11.6 45.9°
Drops below altitude 10° 09:55:35 10° 114° (ESE) 4,473 11.8 47.3°
Sets 09:58:32 0° 107° (ESE) 5,090 11.8 47.6°
